Temperature
7 8 9 9 10 11 11 11 12 12 11 11 12 12 13 12 11 12 12 12 11 11 11 11 11 11 11 11 11 11 11 11 11 11 10 10 10 11 11 11 11 11 11 11
7 7 9 9 9 9 9 10 11 11 10 10 11 11 12 12 12 12 12 12 11 11 11 10 10 11 11 11 11 11 11 11 11 11 11 10 10 10 10 10 10 10 10 11
7 8 8 8 8 8 9 9 10 10 10 10 10 11 12 12 11 11 11 11 11 11 11 10 10 10 10 11 11 11 11 11 11 10 10 10 10 10 10 10 10 10 10 10
7 7 7 7 7 8 8 9 9 9 9 10 10 11 12 12 12 11 11 11 10 10 10 10 10 10 10 10 10 11 11 11 10 10 10 10 10 10 10 10 10 10 10 10
6 6 6 6 7 7 8 8 8 8 9 9 9 10 12 11 11 12 11 10 10 9 9 9 9 9 10 10 10 10 10 10 10 10 10 10 10 9 10 9 9 9 9 9
5 6 6 6 7 7 7 7 7 8 8 8 10 10 12 12 11 11 11 10 9 9 9 9 9 9 9 9 9 10 10 10 10 10 10 10 9 9 9 9 9 9 9 9
5 5 5 6 6 6 6 7 7 7 7 9 10 10 11 11 10 10 10 10 9 8 8 8 8 8 9 9 9 9 9 9 10 9 9 9 9 9 9 9 9 9 9 9
4 5 5 5 5 6 6 7 8 8 9 10 9 9 10 9 9 8 8 8 8 7 7 7 8 8 8 8 8 9 9 9 9 9 9 9 9 9 9 9 9 9 9 9
4 4 5 5 5 5 5 6 7 7 8 9 9 9 9 8 8 8 8 7 7 7 7 7 7 7 8 8 8 8 8 8 8 8 8 9 8 8 9 9 9 9 9 9
2 3 4 4 4 5 6 6 6 6 7 8 9 9 9 8 8 8 8 7 7 6 6 6 6 7 7 7 7 7 7 7 8 8 8 8 8 8 8 8 8 8 8 8
2 2 3 3 3 4 4 4 5 6 7 8 9 9 9 8 8 8 8 7 6 5 5 5 6 6 7 6 6 7 7 7 7 7 7 7 8 8 8 8 8 8 8 8
1 2 2 3 3 3 4 4 5 5 5 6 8 8 7 7 7 7 6 6 5 5 5 5 5 6 6 6 6 6 6 6 6 6 6 7 7 7 7 7 7 7 7 7
1 1 2 3 3 2 3 3 4 4 4 5 6 7 6 6 6 5 5 4 4 4 4 4 5 5 6 6 6 6 6 6 6 6 6 6 6 6 6 7 7 7 7 7
1 0 1 2 3 2 2 2 3 3 4 5 6 6 6 5 5 5 4 4 4 3 3 4 4 4 5 5 5 5 5 5 5 5 5 6 6 6 6 6 6 6 6 6
0 0 0 1 2 2 2 2 2 2 3 4 5 5 5 5 5 4 4 3 3 3 3 3 3 3 4 4 4 4 4 4 5 5 5 5 5 5 5 5 5 6 6 6
-1 -1 -0 0 1 2 1 2 2 2 3 3 4 4 4 4 4 3 3 2 2 2 2 2 3 3 3 3 3 3 4 4 4 4 4 4 5 5 5 5 5 5 5 5
-1 -1 -0 1 1 1 1 1 1 2 2 2 3 3 3 3 3 2 2 2 1 1 1 2 2 2 3 3 3 3 3 3 3 3 3 4 4 4 4 4 4 4 4 4
-2 -2 -1 0 0 -0 1 1 1 1 1 1 2 2 2 2 1 1 1 1 1 0 1 1 1 2 2 2 3 3 3 3 3 3 3 3 3 3 3 4 4 4 4 4
-2 -2 -1 -1 0 1 1 -0 -0 0 1 1 1 1 1 0 1 1 0 -0 -0 -0 0 1 1 1 1 2 2 2 2 2 2 2 2 2 3 3 3 3 3 3 3 3
-2 -2 -1 -1 -1 -1 -0 -1 -1 0 1 0 -0 0 0 -0 2 2 -0 -1 -1 -1 -0 0 0 1 1 1 2 2 2 2 2 2 2 2 2 2 3 3 3 3 3 3
-2 -2 -2 -2 -1 -0 -1 -2 -0 0 -0 -1 -2 -1 -1 -1 -0 -1 -1 -1 -1 -1 -1 -0 -0 0 1 1 1 1 1 1 1 1 1 1 2 2 2 2 2 2 2 2
-3 -2 -2 -2 -2 -2 -2 -2 -1 -2 -2 -2 -2 -2 -2 -3 -3 -2 -2 -2 -2 -2 -2 -1 -1 -0 -0 0 0 0 0 1 1 1 1 1 1 1 1 1 1 2 2 2
-3 -3 -3 -2 -2 -3 -3 -3 -4 -4 -3 -3 -3 -3 -3 -3 -3 -3 -3 -3 -3 -2 -2 -2 -2 -1 -1 -1 -0 -0 -0 -0 0 0 0 0 0 1 1 1 1 1 1 1
-4 -4 -3 -3 -3 -4 -4 -4 -4 -4 -4 -4 -4 -4 -4 -4 -4 -4 -4 -4 -3 -3 -3 -3 -2 -2 -2 -1 -1 -1 -1 -1 -1 -0 -0 -0 -0 -0 -0 -0 -0 0 0 0
-5 -4 -4 -4 -4 -4 -4 -5 -5 -5 -5 -4 -4 -4 -4 -4 -4 -4 -4 -4 -4 -4 -4 -4 -3 -3 -3 -2 -2 -2 -2 -1 -1 -1 -1 -1 -1 -1 -1 -1 -1 -1 -1 -0
-6 -5 -5 -4 -5 -5 -5 -6 -5 -5 -5 -5 -5 -5 -5 -5 -5 -5 -5 -5 -5 -4 -4 -4 -4 -4 -4 -3 -3 -3 -3 -2 -2 -2 -2 -2 -2 -2 -2 -2 -2 -2 -1 -1
Wind_Speed
7 10 16 18 20 15 12 14 15 12 7 11 16 18 15 10 10 11 11 11 11 11 10 9 9 9 9 9 10 11 10 10 9 7 7 7 7 6 6 6 9 10 10 10
7 15 16 12 14 15 14 15 15 10 7 9 13 17 16 13 14 12 12 12 11 11 8 8 8 8 9 10 10 10 11 11 10 8 7 6 6 6 6 6 7 10 10 10
14 9 8 10 12 15 17 18 15 11 6 8 8 13 15 12 12 12 12 12 11 11 10 9 8 8 9 9 10 10 11 12 11 10 7 6 5 4 5 6 6 8 10 10
11 10 8 11 13 14 16 14 13 11 9 7 8 9 11 10 10 11 11 10 10 9 9 9 8 9 9 9 9 10 10 11 11 10 10 10 9 8 8 7 6 7 9 9
7 7 8 12 12 13 9 7 11 12 11 10 10 9 9 7 10 10 8 8 8 8 8 8 8 8 8 8 8 9 10 10 10 10 11 11 10 8 7 7 7 7 7 8
8 5 7 8 8 10 6 5 6 8 8 12 16 13 10 7 9 7 7 7 6 6 6 6 6 6 6 6 7 8 9 9 10 10 11 12 12 10 9 9 8 7 6 6
5 5 4 4 5 7 8 7 6 8 10 12 11 11 8 3 4 6 5 4 3 3 3 4 5 5 5 6 7 8 9 9 9 10 10 11 11 12 11 10 9 8 6 6
4 5 4 3 6 6 11 12 8 8 10 8 9 11 5 2 2 3 3 2 1 1 2 3 4 5 6 6 7 8 9 8 9 9 9 9 10 8 8 9 8 8 7 7
4 4 2 3 4 6 7 10 9 5 4 6 8 6 4 2 1 2 2 1 1 1 1 1 2 3 4 6 7 8 9 8 8 9 9 8 9 8 8 8 8 6 6 6
3 5 4 3 2 4 6 5 5 5 6 8 8 9 6 5 4 3 2 2 2 1 1 1 1 1 2 4 5 6 8 8 8 8 8 7 8 8 8 8 8 7 7 6
4 4 3 2 3 4 4 5 5 5 5 5 7 4 2 3 2 2 2 2 1 0 1 1 0 1 2 3 3 5 6 6 6 7 7 7 7 7 7 7 7 7 7 7
3 3 4 5 3 3 4 4 5 6 5 6 5 3 3 2 2 2 2 2 1 1 1 1 0 1 2 2 3 3 4 5 6 6 6 6 6 6 6 7 7 7 7 7
3 2 3 2 2 1 2 3 4 4 4 5 7 3 2 4 4 3 2 2 2 2 2 1 1 1 1 2 2 3 3 4 5 6 6 6 6 6 6 6 6 6 7 7
4 3 5 6 4 2 4 5 5 4 4 6 8 6 4 5 5 5 3 3 2 2 2 2 1 1 1 1 2 2 2 3 4 5 6 6 6 6 6 6 6 6 7 7
3 4 5 8 6 5 5 6 6 7 8 8 7 7 6 6 5 5 4 3 3 3 3 2 1 1 1 1 1 2 2 2 4 5 5 5 5 5 5 5 6 6 6 6
3 4 5 6 5 4 5 7 6 7 8 9 9 8 6 7 5 4 3 3 3 3 3 2 1 1 0 1 1 1 1 2 3 5 5 5 5 5 5 5 5 5 6 6
3 3 3 5 5 4 4 6 5 5 4 5 7 7 6 6 6 5 4 3 3 3 3 2 2 1 0 0 1 1 1 2 3 4 4 4 5 5 5 5 5 5 5 6
5 4 3 3 2 3 1 3 4 3 2 3 5 7 6 7 6 4 3 3 3 3 3 2 1 1 1 1 1 1 1 2 3 3 3 4 5 5 5 5 5 5 5 5
5 4 2 2 3 4 3 5 6 3 2 5 7 8 7 6 4 2 4 4 3 2 2 2 1 1 1 1 1 2 2 2 3 3 3 3 4 4 5 5 5 4 5 5
1 2 2 2 2 2 5 9 9 4 2 7 8 8 7 5 3 3 6 5 4 3 3 3 3 3 2 2 2 3 3 2 2 2 2 2 3 3 4 4 4 4 4 4
2 1 2 3 3 2 6 11 5 0 4 9 9 7 6 3 4 5 5 4 3 3 3 4 4 4 3 3 3 3 3 2 1 1 2 2 2 2 3 3 3 4 4 4
3 2 1 2 2 3 8 6 4 5 7 7 8 7 6 4 5 5 4 4 4 4 5 5 4 5 4 4 4 4 3 2 2 2 2 2 2 2 2 3 3 3 4 4
3 3 2 1 1 4 5 4 5 6 6 7 7 7 5 5 5 5 5 5 5 5 5 5 5 5 5 5 4 4 3 3 3 4 3 3 3 3 2 3 3 3 3 2
3 4 2 1 2 6 7 7 8 7 7 7 7 6 4 4 4 5 5 5 5 6 5 5 5 6 6 6 5 4 4 4 4 4 4 3 3 3 3 2 2 2 2 2
5 4 3 2 4 6 6 9 10 9 8 8 7 6 5 4 4 4 5 5 5 5 5 5 5 5 6 6 6 5 4 4 5 5 4 4 3 3 3 2 2 1 1 1
4 4 3 3 5 5 7 9 9 8 8 8 7 7 6 5 4 5 5 5 5 5 5 5 5 5 5 5 6 6 5 5 5 4 4 3 3 3 2 3 3 5 4 4
Wind_Direction
202 214 219 218 220 237 242 237 240 239 221 222 236 248 252 246 244 246 244 241 239 239 239 229 218 210 205 203 201 199 194 188 181 179 181 183 188 185 186 186 186 184 181 180
207 227 233 234 229 233 236 239 243 246 223 229 249 255 255 248 242 244 246 243 241 239 231 220 212 209 206 203 201 199 194 187 185 188 187 188 185 188 185 183 186 186 184 181
222 233 232 225 224 226 232 233 236 240 240 235 259 261 247 239 238 243 246 246 244 239 233 223 214 210 209 207 203 199 194 190 187 185 179 167 169 175 183 183 187 188 186 183
236 245 234 228 228 226 238 233 234 234 239 238 226 258 248 234 232 235 240 240 241 239 235 228 219 213 208 207 204 200 194 190 189 185 183 182 187 192 195 188 188 184 186 185
237 234 232 231 232 226 238 235 223 226 236 246 229 242 254 221 230 230 233 233 234 235 231 228 220 215 210 203 198 197 193 190 189 189 189 189 194 196 188 182 182 182 185 187
257 249 242 245 244 225 214 205 209 218 227 240 230 228 251 222 226 226 229 229 230 236 233 228 220 210 205 196 190 188 186 189 191 190 189 192 192 188 183 182 181 182 182 185
263 239 230 237 226 200 200 194 194 200 213 234 212 218 242 236 217 226 231 231 231 235 234 225 216 208 202 192 188 185 184 186 188 190 192 192 193 188 187 184 184 182 181 182
255 247 212 217 223 211 211 212 216 220 221 221 194 219 220 166 214 239 249 244 230 225 229 227 217 209 202 194 190 185 187 188 186 187 190 191 189 184 186 188 185 185 185 183
260 259 294 273 254 219 206 219 235 258 241 224 207 214 224 199 224 230 244 265 308 314 301 240 215 209 203 196 192 188 187 186 186 185 183 184 185 184 184 185 185 183 180 175
281 271 281 300 243 235 230 214 208 217 220 224 216 220 216 185 204 229 258 288 316 350 10 345 221 209 205 198 190 184 186 184 183 183 183 181 183 186 184 182 182 179 177 173
287 261 274 277 225 225 203 203 222 225 242 238 226 214 181 198 212 229 259 293 288 310 351 331 203 169 170 173 176 173 178 177 174 175 179 175 177 182 180 180 182 178 173 173
294 267 266 266 272 270 233 218 213 222 224 237 244 226 72 21 13 2 346 347 331 345 351 349 56 101 120 137 150 162 168 172 172 170 172 171 169 171 176 178 180 174 174 176
301 267 278 255 189 146 255 234 229 241 248 230 228 223 45 3 6 6 5 356 348 347 8 19 86 97 97 123 142 153 160 171 171 168 166 164 165 169 175 177 174 172 174 176
314 259 253 260 289 303 284 277 243 225 234 240 240 254 298 340 346 345 347 345 341 335 354 10 55 79 75 105 136 145 157 166 166 166 167 167 168 171 172 172 172 172 171 173
313 265 269 282 290 286 291 290 265 232 239 242 256 265 286 313 315 320 327 344 353 353 353 351 6 39 61 84 112 131 150 161 166 165 168 173 169 165 164 167 167 165 167 170
323 280 283 279 287 285 301 308 280 258 249 246 261 270 304 311 320 324 325 337 337 330 329 333 342 1 46 84 108 128 140 156 167 168 172 170 164 161 163 165 162 161 164 166
285 269 263 268 294 279 289 301 286 259 250 252 256 273 312 311 320 317 316 322 318 313 310 311 321 330 352 62 104 122 144 146 161 166 166 164 160 160 165 163 161 163 166 167
257 251 247 275 273 239 328 348 309 282 291 318 294 304 311 305 304 312 330 328 316 320 323 325 344 10 19 35 63 109 135 141 146 153 158 160 163 162 163 162 166 168 167 172
244 232 242 255 251 269 321 349 335 284 284 339 314 308 314 327 318 325 352 336 316 315 324 332 358 32 40 56 77 104 119 129 133 143 154 158 161 162 164 169 173 170 169 173
299 208 230 248 248 268 340 335 321 265 272 353 337 325 329 336 298 322 351 349 350 1 9 18 34 46 50 48 76 95 102 108 117 137 151 151 156 164 172 174 171 168 169 172
344 291 251 252 249 283 345 336 334 199 337 340 338 335 336 327 313 334 349 1 11 22 30 41 51 52 43 47 84 89 85 81 87 117 127 126 133 150 161 159 160 161 158 157
338 332 283 253 251 293 348 356 6 337 336 340 345 345 343 342 356 7 11 19 28 34 40 44 50 47 39 46 69 75 64 52 71 97 101 103 107 113 127 132 138 146 148 149
350 339 316 304 3 350 352 357 349 347 342 345 346 344 352 4 11 16 21 30 37 39 38 41 50 49 40 39 53 71 58 63 78 91 95 96 90 87 98 122 135 136 138 150
338 340 323 314 347 347 355 359 358 357 351 347 349 350 2 9 13 22 33 37 38 35 35 40 49 51 43 37 43 51 55 66 79 82 83 94 97 93 89 92 114 139 154 165
328 329 324 311 328 337 358 355 351 354 357 1 4 8 14 25 25 34 39 38 39 37 35 39 48 49 44 39 40 40 44 61 74 75 76 79 87 96 89 83 78 109 150 179
338 321 318 316 326 318 319 336 342 348 354 358 5 13 18 28 34 38 41 39 40 40 38 41 43 46 42 39 39 34 37 49 63 69 67 71 77 82 91 94 76 60 66 70
Height
1474 1473 1466 1463 1464 1463 1462 1462 1460 1462 1467 1470 1465 1462 1461 1464 1466 1465 1464 1465 1466 1467 1469 1470 1471 1473 1475 1478 1480 1482 1485 1488 1490 1492 1494 1497 1499 1502 1505 1507 1509 1512 1514 1516
1471 1466 1462 1464 1465 1466 1465 1463 1461 1463 1467 1467 1462 1459 1457 1459 1460 1460 1460 1461 1462 1463 1464 1465 1467 1469 1471 1473 1475 1478 1480 1483 1486 1488 1491 1494 1496 1499 1501 1503 1506 1508 1511 1513
1461 1460 1463 1464 1464 1464 1462 1461 1459 1462 1465 1465 1463 1454 1451 1452 1455 1456 1457 1457 1458 1459 1460 1461 1463 1464 1466 1468 1471 1473 1476 1479 1482 1485 1488 1490 1493 1495 1497 1499 1502 1505 1507 1510
1461 1461 1462 1461 1460 1461 1458 1458 1461 1463 1463 1459 1461 1451 1441 1445 1448 1450 1452 1453 1454 1455 1456 1458 1459 1460 1462 1464 1467 1470 1472 1475 1478 1481 1483 1486 1488 1491 1493 1496 1499 1502 1504 1506
1458 1460 1460 1458 1457 1459 1457 1459 1460 1461 1461 1459 1457 1455 1438 1442 1443 1444 1447 1449 1450 1451 1453 1454 1455 1456 1458 1460 1463 1465 1468 1471 1474 1476 1479 1482 1485 1488 1491 1493 1496 1498 1500 1503
1459 1460 1460 1457 1457 1459 1460 1461 1461 1460 1460 1457 1445 1448 1434 1435 1437 1440 1443 1445 1446 1448 1449 1450 1452 1453 1455 1457 1459 1461 1464 1467 1470 1472 1475 1478 1481 1484 1487 1489 1492 1494 1496 1499
1458 1456 1457 1457 1456 1457 1457 1457 1455 1455 1454 1441 1437 1441 1433 1434 1438 1439 1441 1443 1444 1445 1446 1447 1448 1449 1451 1453 1455 1457 1460 1463 1466 1468 1470 1473 1477 1480 1483 1486 1488 1490 1492 1495
1456 1452 1454 1455 1454 1452 1452 1451 1445 1439 1433 1429 1439 1435 1433 1438 1439 1440 1441 1441 1442 1443 1444 1444 1445 1446 1448 1449 1451 1454 1456 1459 1461 1464 1467 1470 1473 1476 1479 1482 1485 1487 1490 1492
1458 1453 1454 1455 1455 1453 1451 1448 1446 1444 1436 1433 1428 1432 1435 1438 1438 1439 1439 1439 1440 1441 1441 1442 1443 1444 1445 1446 1448 1450 1453 1455 1457 1460 1463 1466 1470 1473 1476 1479 1482 1485 1487 1489
1464 1459 1454 1455 1454 1453 1451 1448 1448 1447 1437 1427 1423 1427 1427 1433 1435 1436 1437 1438 1439 1440 1440 1441 1441 1442 1443 1444 1446 1448 1450 1452 1454 1457 1460 1463 1467 1470 1473 1476 1479 1482 1484 1487
1466 1462 1456 1454 1452 1449 1451 1451 1447 1442 1439 1429 1422 1425 1429 1431 1433 1435 1437 1438 1439 1439 1439 1440 1440 1441 1441 1443 1444 1445 1448 1450 1452 1454 1458 1461 1464 1467 1471 1473 1476 1479 1481 1484
1467 1462 1456 1452 1452 1453 1450 1449 1448 1445 1442 1435 1427 1430 1432 1434 1435 1436 1437 1438 1439 1439 1439 1439 1439 1439 1440 1442 1443 1444 1446 1448 1450 1452 1455 1458 1462 1465 1468 1470 1473 1476 1478 1481
1467 1464 1456 1449 1454 1454 1452 1450 1450 1449 1445 1437 1432 1433 1435 1435 1436 1438 1438 1439 1439 1439 1438 1438 1438 1439 1440 1441 1442 1444 1445 1447 1448 1451 1453 1456 1459 1462 1465 1468 1470 1473 1475 1478
1467 1464 1460 1453 1450 1454 1454 1451 1450 1450 1446 1439 1434 1433 1435 1436 1437 1438 1438 1438 1438 1438 1438 1437 1437 1438 1439 1440 1441 1442 1444 1445 1447 1449 1451 1453 1456 1459 1462 1465 1467 1470 1472 1475
1467 1463 1461 1457 1455 1454 1453 1452 1450 1450 1446 1443 1437 1437 1438 1439 1439 1439 1439 1438 1438 1437 1437 1437 1437 1437 1438 1439 1440 1441 1442 1444 1446 1448 1449 1451 1454 1457 1459 1462 1464 1466 1469 1471
1468 1465 1462 1458 1454 1452 1451 1450 1449 1447 1445 1442 1440 1440 1440 1441 1440 1439 1438 1438 1437 1437 1436 1436 1436 1437 1437 1438 1439 1440 1441 1442 1444 1446 1448 1450 1452 1454 1456 1459 1461 1463 1466 1468
1468 1467 1462 1454 1453 1451 1450 1451 1450 1447 1445 1445 1443 1443 1443 1441 1440 1439 1438 1438 1437 1436 1436 1436 1436 1436 1436 1437 1438 1439 1440 1441 1443 1444 1446 1448 1450 1451 1454 1456 1458 1461 1463 1466
1469 1466 1462 1456 1455 1456 1452 1452 1451 1448 1448 1448 1446 1444 1443 1442 1441 1439 1439 1438 1437 1436 1435 1435 1435 1435 1436 1436 1437 1438 1439 1440 1441 1443 1444 1446 1448 1450 1452 1454 1456 1459 1461 1463
1466 1464 1461 1457 1453 1450 1451 1454 1454 1451 1448 1449 1447 1445 1443 1442 1439 1438 1438 1437 1437 1436 1435 1434 1434 1435 1435 1435 1436 1437 1438 1439 1440 1442 1443 1445 1446 1448 1450 1452 1454 1456 1459 1461
1464 1464 1462 1459 1456 1455 1455 1455 1453 1452 1447 1450 1448 1445 1443 1442 1437 1438 1438 1436 1436 1435 1435 1434 1434 1434 1434 1434 1435 1436 1437 1438 1440 1441 1442 1444 1445 1447 1448 1450 1452 1454 1456 1458
1465 1463 1463 1460 1458 1455 1460 1457 1452 1451 1453 1452 1449 1447 1445 1443 1442 1441 1438 1437 1436 1435 1434 1434 1433 1433 1434 1434 1435 1435 1436 1438 1439 1440 1441 1443 1444 1446 1447 1449 1450 1452 1454 1456
1468 1465 1464 1462 1462 1464 1463 1459 1459 1458 1456 1453 1450 1448 1445 1444 1442 1440 1438 1437 1436 1435 1434 1434 1433 1433 1434 1434 1434 1435 1436 1437 1438 1439 1440 1441 1443 1444 1445 1447 1448 1450 1452 1453
1472 1473 1468 1467 1469 1468 1466 1464 1462 1459 1457 1453 1451 1448 1446 1444 1442 1441 1439 1438 1436 1436 1435 1435 1434 1434 1434 1434 1435 1435 1436 1437 1437 1438 1439 1440 1442 1443 1444 1446 1447 1448 1449 1451
1475 1475 1472 1469 1468 1469 1467 1465 1462 1459 1457 1454 1451 1448 1446 1444 1443 1442 1440 1439 1438 1437 1436 1436 1435 1434 1434 1435 1435 1435 1436 1436 1437 1437 1438 1439 1441 1442 1443 1445 1446 1447 1448 1449
1479 1476 1474 1471 1470 1469 1467 1465 1463 1460 1457 1454 1451 1449 1447 1445 1444 1443 1442 1440 1440 1439 1438 1437 1436 1436 1435 1435 1435 1436 1436 1436 1436 1437 1438 1439 1440 1441 1442 1444 1445 1446 1448 1449
1481 1480 1476 1473 1473 1472 1469 1466 1463 1460 1458 1455 1452 1450 1448 1447 1446 1444 1443 1442 1441 1440 1439 1438 1438 1437 1437 1437 1436 1437 1437 1437 1437 1437 1438 1439 1440 1441 1442 1442 1444 1445 1446 1447